Wind_Gust
17 17 17 18 17 17 17 17 17 17 16 16 16 15 15 14 14 13 13 13 13 13 13 14 15 15 16 18 18 18 19 19 19 18 18 18 18 18 19 20 20 19 19 18 18 18 19 20 20 21 20 21 22 22 23 23 23 24 24 24 25 24 25 28 32 35 33 28 29 33 32 32 35 29 34 32 30 29 21 24 22 20 20 23 25
18 19 17 18 17 17 16 16 17 16 15 15 15 16 15 14 13 13 13 13 14 15 14 13 14 15 17 19 20 20 19 19 18 18 18 18 18 18 19 20 20 19 18 19 19 18 18 19 20 20 20 21 22 23 23 25 25 26 26 26 26 26 25 30 31 32 36 34 32 30 35 31 35 31 31 33 33 28 28 27 27 23 20 21 23
19 19 19 18 17 16 16 16 16 15 15 15 15 16 14 13 13 13 13 13 13 14 14 14 15 16 17 18 19 19 20 19 18 18 19 19 19 18 18 18 18 18 19 19 20 20 20 20 21 21 21 23 22 22 23 24 26 26 26 26 26 27 27 26 30 32 34 37 33 34 32 33 33 35 33 33 33 34 33 29 25 18 19 21 21
20 19 18 18 17 17 17 16 16 15 15 15 14 13 13 13 13 13 13 13 14 14 14 15 16 16 17 19 20 20 20 20 20 19 20 19 19 19 19 18 18 18 18 19 20 20 20 20 21 22 24 24 24 24 23 24 25 25 24 25 26 27 27 26 27 31 33 37 35 36 34 35 35 33 33 33 34 32 31 31 23 23 21 20 19
20 20 19 18 18 18 17 16 16 16 15 15 14 14 13 13 13 14 14 14 14 14 14 14 15 17 18 20 20 21 22 22 22 22 21 20 19 18 18 18 17 17 18 18 15 19 20 21 22 23 24 24 23 24 26 25 27 27 28 28 28 27 27 28 30 30 33 35 38 35 33 35 35 34 32 35 33 32 28 26 26 24 23 23 19
20 20 19 19 19 18 17 16 16 16 15 15 14 13 13 13 13 13 14 15 14 15 15 15 16 18 19 20 20 21 22 23 24 24 23 22 20 18 18 19 18 18 18 18 19 20 20 22 23 25 24 24 26 27 27 27 28 29 30 31 31 29 28 28 29 30 31 34 34 39 32 35 35 33 31 33 33 35 34 30 25 23 24 24 22
20 20 19 18 19 17 17 16 16 15 15 14 14 14 14 13 14 15 14 15 15 15 15 16 16 17 18 19 20 22 23 24 25 25 24 23 21 19 18 18 17 17 18 19 20 19 21 22 23 23 24 24 26 28 28 28 31 31 31 31 30 30 30 29 29 30 30 32 33 31 35 32 32 36 33 30 33 32 32 32 30 26 25 24 22
20 20 19 19 19 18 17 16 16 16 15 15 15 14 14 14 14 14 14 15 15 15 15 15 15 16 17 18 20 21 22 24 26 26 25 24 21 18 17 17 18 18 17 18 19 21 22 23 22 23 23 24 26 27 28 30 32 32 32 32 31 30 30 29 28 29 29 30 32 34 32 34 33 32 35 31 31 29 27 29 31 31 28 24 21
21 21 20 19 18 18 17 16 16 16 16 16 15 15 15 14 14 15 14 14 14 15 15 15 16 17 18 18 20 21 22 25 25 25 24 24 22 18 17 18 17 18 19 19 19 21 22 22 22 23 24 19 14 14 16 18 31 34 34 32 32 31 30 30 30 30 29 30 32 31 33 32 32 33 35 33 31 34 35 31 32 30 30 31 25
21 21 20 19 18 18 18 16 17 16 16 16 16 15 15 15 15 15 15 15 15 15 15 15 16 17 18 19 19 20 23 23 20 22 19 21 21 19 17 16 17 18 20 19 20 22 23 23 23 21 14 14 17 14 16 20 21 28 33 32 32 32 32 31 31 29 30 31 31 33 34 33 33 32 34 33 33 32 32 31 31 30 31 31 30
21 21 21 20 20 19 18 18 18 18 17 16 15 16 16 15 15 15 15 15 15 15 15 16 16 16 19 20 19 20 22 21 19 19 21 21 20 20 18 17 17 18 19 19 21 22 23 24 24 23 22 21 28 20 21 23 22 22 23 24 25 31 30 31 30 29 32 31 32 32 33 35 34 33 33 35 33 32 31 30 31 32 32 31 36
22 22 21 20 20 19 19 19 19 18 17 17 17 16 16 16 16 15 15 15 15 15 15 15 15 14 17 19 19 20 20 15 18 19 20 23 20 24 18 17 16 17 18 20 21 22 23 24 24 25 26 31 31 30 30 26 24 24 24 24 22 20 15 22 30 32 30 32 33 32 32 33 34 32 35 34 35 32 31 31 33 32 33 32 30
23 22 21 21 20 19 19 20 19 18 18 17 16 16 16 16 16 16 16 15 15 16 16 15 15 14 15 18 20 21 21 15 17 20 20 21 22 21 18 17 17 17 18 20 22 23 23 25 26 27 28 28 29 30 33 35 26 26 24 23 23 23 22 22 20 24 27 30 30 32 30 32 33 33 33 37 35 35 33 34 31 31 31 33 33
22 22 21 21 20 20 20 20 19 18 17 17 17 17 17 16 14 14 14 14 15 15 15 15 14 14 14 16 18 20 22 15 16 20 21 23 22 22 15 16 16 17 19 21 22 21 22 24 28 29 28 28 28 32 32 33 34 34 33 33 34 32 25 24 22 21 22 29 28 32 32 30 35 32 36 35 35 34 34 35 31 32 33 35 34
22 22 21 21 20 20 21 20 19 19 18 17 17 17 16 14 14 14 14 14 14 14 14 15 14 14 13 14 16 19 21 16 17 20 21 23 26 21 16 15 18 17 19 20 19 21 21 23 25 27 28 27 29 29 31 34 34 34 33 34 35 33 33 31 31 31 31 29 31 33 37 36 33 33 35 36 33 33 31 34 34 33 38 37 38
23 22 22 21 21 20 20 20 19 19 18 18 17 17 15 15 15 13 14 14 14 14 14 14 15 15 14 14 14 18 21 16 17 19 21 23 25 18 20 17 18 18 19 20 20 22 21 22 26 26 25 26 23 25 25 30 32 32 34 34 35 35 33 24 21 22 27 30 33 35 36 35 31 38 35 34 32 30 30 31 30 29 30 31 35
23 22 22 21 21 21 20 20 19 18 18 18 17 16 14 14 13 14 14 13 14 14 14 14 15 16 16 15 13 15 18 17 16 18 20 24 21 22 19 20 19 20 20 20 21 21 20 17 23 26 25 26 24 25 25 23 30 33 34 35 36 35 35 34 28 23 22 24 26 27 28 28 28 28 29 32 30 25 23 26 28 25 27 29 31
23 23 22 22 21 20 20 20 19 18 17 18 16 15 14 14 14 13 14 13 13 13 13 14 14 14 16 17 16 14 17 17 15 14 18 21 23 24 21 21 19 20 19 19 20 21 18 17 21 26 28 29 23 25 25 26 31 33 33 36 38 39 38 39 38 33 26 26 26 25 25 26 27 26 25 23 22 20 21 31 29 26 26 24 31
24 23 23 22 21 20 19 19 18 18 18 16 15 14 13 13 12 12 13 13 13 13 13 14 13 13 13 14 9 14 15 14 13 12 15 17 23 24 22 22 21 22 22 21 21 21 23 14 16 23 25 26 25 25 26 25 27 31 33 32 37 38 39 39 38 39 41 39 39 37 33 28 32 30 28 23 23 23 21 23 24 22 22 25 27
24 23 22 22 20 20 18 18 17 17 17 15 14 14 13 13 12 11 11 13 13 13 13 14 13 13 12 12 13 15 16 15 16 11 13 14 15 24 21 22 23 21 23 24 22 22 21 23 18 20 21 24 26 26 24 24 22 28 32 29 25 29 28 30 34 35 35 38 35 35 35 32 31 26 26 26 27 23 22 22 22 20 21 25 26
24 23 22 21 21 20 19 17 17 16 15 15 13 13 13 13 12 12 13 13 12 11 10 10 11 11 11 11 11 9 12 15 15 10 11 12 13 14 22 22 23 24 25 24 22 23 24 25 25 20 21 23 25 26 25 22 19 24 28 23 20 26 24 27 32 26 31 29 28 28 27 27 26 23 22 23 23 23 23 21 21 21 22 24 23
24 23 23 23 21 20 19 18 16 15 15 14 13 13 12 11 11 11 12 12 11 11 9 10 10 10 10 10 11 10 11 7 15 10 8 11 12 11 18 21 22 24 22 24 24 22 24 25 26 22 20 21 24 26 25 21 21 21 23 15 19 23 27 31 37 36 33 29 30 30 30 30 30 29 26 24 24 25 25 24 21 20 21 21 21
25 24 23 22 20 19 18 16 15 14 14 13 13 13 13 12 11 11 11 11 10 10 10 9 9 11 10 11 11 13 14 14 9 16 7 8 10 11 10 13 11 21 22 25 24 24 23 24 25 18 21 21 22 24 24 20 16 24 17 19 19 20 25 38 36 38 37 34 28 32 31 31 31 30 28 28 28 25 25 25 25 23 20 18 18
24 23 22 22 21 20 19 16 14 14 14 14 13 12 11 11 10 10 8 8 9 10 10 9 10 10 11 11 12 13 14 13 9 11 13 8 13 10 10 11 10 17 24 23 23 23 24 25 23 19 21 22 20 20 20 14 21 19 16 19 21 19 35 38 38 38 35 35 32 33 32 31 30 28 30 29 29 27 26 25 24 22 19 17 14
23 23 23 22 20 20 18 17 16 15 14 13 13 13 11 11 11 10 9 9 9 9 9 10 10 11 11 12 11 12 13 15 16 12 6 8 11 11 14 9 9 12 20 21 20 23 19 20 20 19 18 19 19 17 19 19 18 18 19 21 22 35 37 38 38 36 38 38 32 31 32 31 30 27 28 28 27 24 25 25 24 21 20 14 11
23 22 22 20 21 21 19 18 17 16 14 14 12 12 11 10 9 8 8 9 9 9 9 10 10 11 12 12 12 12 12 15 17 18 13 13 13 14 14 13 12 15 16 15 13 17 18 19 16 15 17 19 27 30 28 29 14 19 20 23 32 33 36 37 38 36 36 35 31 32 32 32 33 30 25 25 26 27 28 28 28 26 26 20 15
22 21 20 20 18 19 17 17 17 15 13 13 13 12 11 10 9 9 9 9 8 9 9 10 10 11 11 12 12 12 13 15 17 18 19 21 22 21 23 23 14 14 19 20 18 23 27 22 18 12 13 17 18 17 20 21 27 30 31 32 32 33 35 33 33 31 24 27 29 31 31 30 28 29 30 29 28 27 27 25 25 25 26 23 21
21 20 20 18 18 19 18 9 14 17 15 14 13 11 9 7 8 9 10 9 8 8 8 10 11 11 11 13 13 13 14 15 17 18 19 20 22 23 23 24 24 23 23 22 26 29 31 13 18 24 26 27 30 30 31 31 30 29 31 31 32 33 27 22 19 25 25 25 25 26 30 32 32 30 29 27 27 26 27 26 27 25 25 24 25
18 19 19 20 18 17 17 19 18 16 15 13 12 10 8 8 11 13 12 13 14 14 11 10 11 11 11 12 13 14 14 15 16 5 13 8 15 19 22 23 24 24 20 20 25 28 24 25 24 25 27 25 28 30 32 32 31 32 30 31 32 33 34 32 33 32 30 28 28 29 30 30 29 28 27 29 29 28 28 24 24 23 24 25 25
19 20 20 19 19 18 17 19 16 15 16 15 13 14 9 11 13 13 16 9 10 8 6 13 12 13 12 10 12 14 14 15 5 6 8 10 13 12 12 16 17 21 20 24 21 24 21 20 25 26 27 28 29 27 30 31 31 31 30 21 31 31 31 30 32 31 26 24 26 28 29 28 30 30 30 30 29 27 27 22 26 24 25 28 26
20 21 20 19 19 18 17 17 16 15 16 15 15 15 15 12 9 11 11 9 7 4 4 6 4 4 10 13 9 10 4 4 5 6 8 11 12 14 15 16 19 22 24 20 23 23 19 21 21 22 24 27 25 27 27 27 28 29 30 29 32 30 26 30 31 26 23 24 24 26 25 26 28 28 27 28 28 28 28 26 23 25 25 26 28
20 20 19 17 18 16 17 17 16 15 15 16 16 17 17 18 17 7 11 14 10 10 10 8 7 7 6 8 9 10 11 7 3 6 10 12 13 14 17 18 19 21 25 18 19 19 17 20 20 22 24 21 22 23 27 28 29 29 27 28 29 27 29 29 30 30 27 27 26 28 26 25 27 27 25 25 26 27 29 29 28 25 25 25 25
19 19 20 19 20 18 16 17 15 15 14 15 14 14 18 19 20 19 15 8 9 11 10 11 11 10 10 10 11 9 10 11 11 11 11 12 15 16 17 20 20 23 19 18 17 20 18 21 23 23 24 22 26 26 26 26 27 27 28 29 30 29 31 30 25 31 27 27 24 27 25 23 25 26 25 24 28 29 31 31 29 27 26 26 25
19 19 19 19 20 20 17 17 16 15 14 15 14 15 14 12 14 19 21 20 16 7 8 10 10 9 11 13 12 12 13 13 14 13 14 14 16 18 16 20 22 28 20 20 17 19 21 21 22 23 24 24 24 25 23 25 26 27 27 28 29 30 30 30 31 31 27 25 25 26 24 22 22 25 28 26 25 27 28 30 31 31 29 27 27
21 12 9 12 20 20 17 16 17 16 15 15 14 14 12 11 9 10 12 18 22 23 22 21 15 15 18 14 15 15 14 14 14 15 15 16 17 19 15 23 17 13 11 12 19 20 21 21 22 23 23 24 23 24 24 25 26 25 27 29 29 30 31 29 30 31 31 29 28 27 25 25 27 22 24 26 24 29 29 28 28 27 27 25 28
22 19 19 17 18 19 17 17 16 16 15 15 15 14 13 13 12 11 11 10 11 11 11 19 25 16 22 16 12 14 15 15 16 16 16 16 18 12 17 20 15 15 17 16 19 20 20 20 21 22 22 23 23 24 24 24 25 25 27 28 26 28 30 29 27 28 27 29 26 25 23 25 25 22 23 25 23 23 26 26 26 26 26 25 25
21 20 21 21 19 18 17 16 16 16 10 13 13 14 13 12 12 13 12 12 11 10 10 11 15 21 15 15 15 14 17 16 18 17 16 17 15 15 22 22 17 17 17 17 18 19 20 20 20 21 21 22 23 24 23 24 25 24 19 27 27 28 28 27 28 24 27 28 27 26 25 26 26 25 25 27 26 23 25 26 25 26 26 26 19
20 20 21 21 20 17 17 17 16 8 14 14 14 14 14 14 14 13 11 11 9 9 12 10 5 13 19 24 19 17 20 18 16 9 10 11 14 19 23 17 15 16 16 16 17 17 19 19 20 21 21 22 22 23 23 23 24 24 25 25 24 23 19 25 19 25 22 26 28 27 28 29 28 28 24 25 25 25 23 24 26 26 24 23 21
20 10 12 15 11 19 18 17 17 18 17 16 15 13 12 13 14 14 14 14 14 15 13 13 13 11 12 9 21 19 22 22 16 16 15 12 11 13 14 13 14 14 15 15 15 16 17 18 19 19 20 21 21 22 22 22 23 24 24 22 22 23 25 26 26 26 27 28 28 28 28 31 31 31 29 28 24 23 22 20 20 22 22 23 23
21 19 13 14 18 18 16 16 16 18 16 17 17 16 15 16 15 14 14 13 13 10 13 13 13 12 12 9 8 11 15 14 12 12 10 9 9 12 13 13 13 13 14 15 14 15 16 17 18 19 20 20 20 21 22 21 21 19 20 21 22 23 24 23 26 26 27 26 27 28 28 27 29 28 29 31 29 24 21 22 20 19 20 19 20
20 20 15 14 13 19 17 17 17 17 17 18 17 16 17 16 16 14 15 15 15 14 14 15 15 15 9 17 10 7 13 16 15 14 14 9 12 13 12 12 13 13 13 14 14 14 14 15 17 18 19 20 20 19 20 20 19 18 18 19 20 21 22 21 22 24 25 23 25 26 26 27 26 26 28 27 18 25 25 23 24 22 16 17 20
21 20 23 22 19 20 20 19 17 16 15 14 18 17 16 16 17 17 16 15 15 15 14 14 14 14 16 16 13 10 12 16 15 15 14 13 13 12 10 12 13 11 12 13 14 13 13 14 15 15 14 14 15 15 15 17 18 18 18 18 19 20 21 22 22 21 22 24 22 23 23 25 25 24 23 15 26 27 28 27 26 21 21 18 17
20 19 21 20 22 22 21 20 20 19 19 18 18 11 14 16 16 17 16 17 17 15 16 16 15 17 15 13 18 12 14 17 10 17 16 15 14 11 12 12 12 10 11 11 12 11 10 10 11 11 12 14 16 14 14 14 14 16 17 16 18 18 19 20 21 22 22 23 22 19 18 22 24 24 23 22 23 23 24 22 22 24 22 21 19
19 18 18 19 21 21 21 20 20 19 18 15 14 16 17 18 19 17 17 17 18 19 19 18 17 18 14 16 13 17 16 17 17 18 14 11 13 11 13 13 11 10 12 12 11 11 9 9 9 10 13 15 15 15 14 12 12 13 15 16 17 16 18 19 19 20 22 23 23 22 22 20 21 23 22 19 21 21 21 19 19 20 22 24 23
19 20 19 19 20 20 23 22 20 19 17 16 18 20 17 19 18 19 19 19 17 18 18 17 17 17 17 17 20 19 18 19 16 14 14 15 14 13 11 12 11 11 10 9 10 10 8 8 8 8 8 10 14 15 16 14 13 11 12 13 16 18 18 17 17 18 19 18 22 21 22 21 21 21 24 22 19 18 20 18 20 13 19 19 20
20 19 20 20 20 19 20 21 19 21 19 20 19 20 20 21 21 20 19 19 18 18 18 19 19 18 17 18 19 17 18 17 16 16 14 12 11 12 10 10 10 9 9 9 8 9 8 8 9 10 9 9 10 12 15 13 12 12 13 14 16 15 15 17 15 16 16 16 20 20 20 19 19 19 17 21 20 20 17 15 15 18 17 17 17
20 20 20 20 20 19 20 19 20 21 22 21 20 20 20 20 20 19 18 20 20 18 20 20 20 19 19 20 20 20 18 18 17 14 17 17 16 14 11 10 11 10 9 10 9 10 8 9 9 8 8 8 9 13 14 14 13 12 12 13 15 16 16 15 16 15 15 16 16 17 18 18 19 18 18 20 18 18 16 17 14 12 14 16 15
20 21 20 19 20 21 20 21 21 15 20 20 20 20 19 20 20 19 19 19 22 22 22 20 20 20 19 19 18 19 18 18 17 16 16 15 16 13 14 11 9 11 11 11 10 10 10 10 10 9 9 9 8 10 12 14 13 11 10 11 14 13 11 10 14 18 16 16 15 13 13 16 17 18 17 16 16 18 17 19 15 15 13 14 14
20 20 20 21 20 21 21 22 21 22 23 22 21 22 20 21 21 21 20 21 21 20 21 22 22 22 21 20 19 19 19 17 19 18 18 17 16 16 15 15 12 13 12 13 13 11 10 11 10 11 11 10 10 10 12 13 14 12 9 9 11 5 5 6 9 16 16 17 13 15 12 13 14 14 15 14 15 16 16 15 16 13 13 12 13
23 21 20 20 21 22 21 21 22 23 22 22 22 22 22 22 23 22 23 22 21 21 22 21 21 21 21 21 20 20 20 19 19 19 19 20 19 18 19 18 16 14 14 12 13 13 13 12 10 11 11 11 11 11 11 13 13 13 9 10 7 4 3 6 9 9 12 12 16 14 14 12 12 13 14 15 14 12 14 14 15 14 11 11 11
23 23 21 21 21 21 22 23 23 23 22 22 22 23 22 23 23 23 23 23 23 23 21 22 22 22 22 22 19 20 19 20 20 20 21 20 20 19 19 17 17 15 16 16 16 16 15 14 14 12 11 12 12 12 13 12 13 10 9 11 8 4 4 5 7 8 12 10 13 13 13 12 11 13 13 15 15 13 14 13 13 13 12 11 9
Wind_Speed
9 9 9 9 9 9 9 9 9 8 8 8 8 7 7 7 6 6 5 5 5 5 5 6 6 6 7 8 8 8 8 8 8 8 8 8 8 8 9 9 9 8 8 9 8 8 9 9 9 10 10 10 10 10 10 11 11 11 11 11 11 11 12 13 15 17 14 13 13 15 17 18 16 16 18 16 16 14 14 11 10 9 9 8 10
9 9 9 9 9 9 8 8 8 7 8 8 8 7 7 6 6 6 6 5 5 5 5 4 5 7 7 8 9 9 9 9 9 8 8 8 8 6 8 9 9 9 8 9 9 8 9 10 10 10 10 11 11 11 11 12 12 12 12 12 12 12 12 13 14 15 18 16 15 14 16 17 17 15 16 17 18 16 16 14 12 11 8 8 9
9 9 9 9 9 8 8 8 8 8 8 7 8 7 6 6 5 5 5 5 5 5 5 6 6 7 7 8 9 9 10 9 9 9 8 9 8 8 8 8 8 8 9 9 10 9 9 9 10 10 9 12 12 11 11 12 12 12 13 12 13 13 13 13 14 15 18 17 16 16 15 15 16 18 18 15 17 17 18 15 11 7 7 8 7
10 9 9 9 9 9 8 8 8 8 8 7 7 7 6 6 6 5 5 5 5 5 6 6 6 7 8 9 10 10 10 10 10 9 10 9 8 8 8 8 8 8 9 9 9 9 10 9 10 11 12 12 11 10 11 11 12 12 13 12 13 14 13 13 13 15 15 17 16 16 15 16 16 17 16 16 16 16 15 15 13 12 9 8 7
10 10 10 10 9 9 9 8 8 8 8 7 7 7 6 6 5 6 5 5 5 5 5 5 7 7 8 9 10 10 10 11 11 11 10 9 9 8 8 8 8 8 8 8 9 9 10 10 11 12 12 12 12 12 13 15 13 13 14 14 14 13 12 13 14 14 16 17 17 15 16 16 15 16 16 16 16 16 15 14 12 13 12 11 6
10 10 10 10 9 10 9 9 9 9 8 8 7 6 6 6 5 5 5 6 6 6 6 6 6 8 9 9 9 10 10 11 12 12 11 10 9 8 8 8 8 8 9 9 9 9 10 11 11 12 12 12 12 13 14 16 15 15 16 15 15 14 14 15 14 14 16 16 17 17 15 16 16 14 16 16 16 16 16 15 14 11 12 10 7
10 10 10 10 9 9 9 8 8 8 7 7 6 6 6 6 6 6 6 6 6 6 6 7 7 8 8 9 10 10 11 12 12 12 11 11 10 8 8 8 8 7 8 9 9 10 11 11 11 11 12 12 14 15 15 16 14 17 17 16 15 15 15 14 14 15 15 16 16 15 16 15 15 17 16 16 17 15 15 15 14 12 11 13 10
10 10 10 10 10 9 8 8 8 8 7 7 7 7 6 6 6 6 6 6 6 6 6 6 7 7 7 8 9 10 11 12 13 13 12 11 10 9 8 8 8 8 8 9 9 10 10 11 11 12 12 13 14 14 15 13 15 17 16 16 16 15 15 14 14 14 14 15 15 16 15 16 14 15 16 16 15 14 12 13 15 15 14 11 11
11 11 10 10 9 9 8 8 7 8 8 8 7 7 7 6 6 6 5 6 5 6 6 7 7 8 8 8 10 10 10 11 11 10 11 12 11 8 8 8 8 8 9 9 9 10 10 10 11 12 12 10 10 8 9 12 14 16 17 16 16 15 15 14 14 14 14 15 15 15 15 15 14 15 16 15 15 16 16 16 15 15 14 14 12
11 11 10 10 9 9 9 8 8 8 8 8 7 7 7 6 6 6 6 6 6 6 6 6 7 8 9 9 9 9 10 10 12 18 14 9 10 8 7 8 8 8 9 8 9 10 11 11 11 15 9 10 13 10 14 16 16 15 16 16 16 16 16 16 15 14 15 15 15 16 17 16 15 16 16 17 17 17 17 16 16 15 15 15 15
11 11 11 10 10 9 9 9 8 8 8 8 7 8 7 6 6 7 7 6 6 6 6 7 7 7 9 10 9 9 10 9 15 16 18 17 10 10 7 7 7 7 8 8 9 10 11 11 11 13 14 15 16 16 16 17 17 16 17 18 17 15 15 15 15 15 15 15 15 15 16 18 18 17 16 17 16 16 15 15 15 15 15 15 16
11 11 11 10 10 10 9 9 9 9 8 8 8 8 7 7 7 7 6 7 6 6 6 6 6 7 8 9 10 9 9 12 15 15 16 18 15 11 7 7 7 7 8 8 8 10 10 11 11 11 12 16 16 15 17 18 18 18 18 17 16 14 12 12 15 15 15 15 17 16 16 17 17 16 16 16 17 17 16 16 16 16 17 15 13
12 12 11 11 10 9 10 10 9 9 9 8 8 8 8 8 7 7 7 7 7 7 7 6 6 6 7 9 10 10 10 12 14 16 16 17 18 13 7 7 7 7 8 9 9 10 10 10 12 12 12 17 15 16 17 18 18 19 17 18 18 19 18 16 15 14 12 14 15 16 15 16 17 16 16 18 18 19 17 16 15 15 15 16 15
12 11 11 11 10 10 10 10 9 9 9 8 8 8 8 7 6 6 6 6 7 7 7 7 6 6 6 8 8 9 10 11 13 16 16 19 18 16 5 6 7 8 9 9 8 9 10 11 12 13 14 14 13 17 17 17 17 17 17 17 18 20 20 19 16 17 16 15 15 16 17 17 17 17 19 19 19 17 16 17 16 16 17 18 19
12 11 11 11 10 10 11 10 10 9 9 8 8 8 7 7 7 6 6 6 6 6 6 7 6 6 5 6 7 8 8 12 13 16 16 18 20 16 6 6 7 7 8 9 9 10 10 10 12 12 12 13 12 16 16 17 18 16 17 18 18 18 18 17 17 16 15 14 16 18 20 20 19 19 18 18 19 17 16 17 18 17 18 19 19
12 11 11 11 11 10 10 10 9 9 9 9 8 8 7 7 6 6 6 6 6 6 6 6 7 6 5 5 6 8 8 12 13 15 16 18 20 9 9 7 8 7 8 9 9 9 9 9 10 11 12 12 16 20 17 15 17 17 18 18 19 17 16 15 14 14 15 15 15 18 18 19 21 20 19 16 15 15 16 15 14 13 13 15 16
12 12 11 11 11 11 10 10 9 9 9 9 8 7 7 6 6 5 6 5 6 6 6 6 6 7 7 5 5 6 8 10 12 14 15 18 15 10 9 8 8 8 8 9 8 9 7 8 9 11 12 14 18 20 20 16 15 17 18 19 18 18 18 17 19 18 17 18 20 21 21 21 21 22 23 24 18 15 11 12 13 12 13 13 15
12 12 12 11 11 10 10 10 9 9 8 8 8 7 6 6 5 4 5 5 5 5 5 5 5 6 7 7 6 5 7 10 11 11 14 16 16 11 8 9 9 10 8 9 9 10 8 13 13 12 15 16 19 19 20 16 14 16 18 18 19 20 19 19 17 15 20 20 20 19 19 20 22 21 20 19 18 15 10 14 15 12 11 11 13
13 12 12 11 11 10 10 9 9 8 9 8 7 7 6 5 5 5 5 5 5 5 5 5 5 4 5 6 6 6 6 8 10 9 11 12 12 11 9 9 9 9 10 9 9 9 10 5 12 15 15 16 20 20 20 16 13 13 16 16 16 17 17 18 18 19 21 21 20 20 17 19 18 17 16 19 18 17 12 13 11 9 10 11 11
13 12 12 11 10 9 9 9 9 8 8 7 6 6 5 5 4 4 4 4 4 4 4 5 5 4 4 4 4 6 7 6 7 8 10 11 11 10 9 9 10 10 10 11 8 10 9 10 10 15 17 17 19 21 19 18 12 12 16 14 12 13 13 14 14 14 16 18 17 15 15 15 14 13 12 13 13 14 12 12 12 10 10 11 12
13 12 11 11 11 10 9 8 8 8 7 7 6 6 5 5 5 5 5 4 4 3 3 3 3 3 3 3 3 2 3 5 6 7 8 9 10 9 9 9 10 10 10 11 10 10 11 11 12 14 16 16 17 20 20 18 15 11 14 11 10 12 15 12 16 20 16 14 14 15 14 14 13 12 11 11 11 11 11 12 12 10 11 12 11
12 12 12 12 11 10 9 9 8 7 7 6 6 6 5 4 4 4 4 4 4 3 2 3 3 2 2 3 4 3 5 4 6 7 4 8 9 8 7 9 9 11 10 10 11 10 11 11 12 13 16 17 17 18 20 17 17 10 12 13 16 16 13 16 18 18 16 13 14 15 15 15 15 14 13 12 12 12 12 12 12 11 11 11 11
13 13 12 12 11 10 9 9 7 6 6 6 6 6 5 5 4 4 4 4 4 4 3 2 2 3 2 3 3 4 5 5 6 9 5 7 9 9 8 7 9 9 10 11 11 10 10 12 13 13 16 17 17 17 18 17 12 13 15 16 16 16 15 15 16 17 17 16 14 16 15 16 15 15 14 14 14 14 13 13 14 13 11 10 10
13 13 12 11 11 10 9 8 7 6 7 6 6 5 4 4 3 3 2 2 3 2 2 2 2 3 3 3 3 4 5 4 6 9 8 7 10 9 9 9 8 7 10 10 10 10 11 13 13 16 17 18 17 16 14 12 10 16 14 16 18 15 16 18 17 15 14 15 16 16 16 15 15 14 14 14 14 14 13 13 13 13 11 9 8
12 12 12 11 10 10 9 8 8 7 6 6 6 5 4 4 4 3 3 2 2 2 2 2 2 3 3 3 3 3 4 5 6 6 5 8 10 10 12 8 6 10 9 9 9 10 12 16 17 16 15 15 16 14 16 16 13 13 16 18 18 14 16 18 18 17 15 14 15 15 16 16 15 14 15 15 15 13 12 13 13 12 11 8 6
12 12 11 11 10 10 9 9 8 8 7 6 5 5 4 3 3 2 2 2 2 2 2 2 2 3 3 3 3 3 4 5 6 7 8 10 10 12 12 11 11 13 12 6 11 13 13 16 15 12 14 13 11 14 12 14 11 14 15 17 15 15 15 17 17 17 14 13 15 15 15 16 16 15 14 13 13 13 14 13 13 13 14 10 8
12 11 11 10 10 9 9 8 7 7 6 6 5 5 4 3 2 2 3 2 2 1 2 2 2 3 2 4 3 3 4 5 6 7 8 8 9 10 11 11 12 11 9 8 11 11 15 13 8 10 8 13 13 13 14 15 14 14 14 15 15 15 16 16 15 14 12 13 14 14 15 15 14 15 14 14 14 13 14 13 12 12 13 11 8
11 11 11 10 8 8 8 8 8 7 6 6 5 4 3 2 2 2 3 2 1 2 1 2 3 3 3 4 4 4 5 5 6 7 7 8 8 9 9 10 10 10 10 10 12 14 15 11 10 10 12 11 12 11 12 14 15 14 13 14 14 14 15 16 14 11 12 12 12 13 14 15 16 15 14 14 13 13 14 13 13 12 12 12 11
10 11 10 9 8 9 7 9 8 7 6 6 5 3 2 2 4 5 5 5 5 5 4 3 3 3 3 3 4 4 5 5 6 4 5 5 6 7 9 9 10 11 13 16 12 13 11 9 11 11 11 10 13 12 13 13 14 15 15 15 14 14 15 15 14 14 13 13 14 14 15 15 15 14 14 14 14 13 14 12 12 12 12 11 10
11 10 9 9 9 8 8 8 7 6 7 6 5 6 8 10 8 4 6 5 7 5 5 5 4 4 4 3 4 5 4 5 4 3 6 8 9 9 10 12 14 12 16 19 12 10 9 8 9 9 11 11 11 11 13 13 12 14 14 14 14 14 14 14 15 14 12 12 13 14 14 14 15 15 15 15 14 13 14 14 12 12 11 13 12
8 9 9 9 9 8 8 8 7 6 7 6 6 6 5 5 8 10 10 8 7 3 2 3 1 2 3 4 3 7 3 3 4 5 6 8 10 11 12 13 16 17 18 10 10 10 7 8 8 8 9 11 10 10 11 11 11 9 10 13 15 13 12 14 14 12 11 11 12 12 13 12 14 14 14 14 14 14 14 13 11 13 12 13 13
9 10 9 8 9 8 7 8 7 6 6 6 7 7 7 8 6 3 10 12 9 8 8 7 6 5 4 4 4 1 6 5 3 5 7 9 11 12 13 14 15 16 18 12 8 8 7 8 8 8 10 9 9 11 10 10 11 12 11 12 13 11 13 13 13 14 13 13 12 13 13 12 13 14 13 13 13 13 15 15 14 12 12 12 13
9 9 9 8 9 9 7 7 7 6 6 6 6 6 7 8 8 8 5 5 5 8 7 7 7 8 8 7 8 7 7 7 9 9 9 10 12 13 14 16 16 18 14 8 6 8 7 8 10 10 10 9 11 11 12 12 12 11 12 12 13 12 14 15 14 14 12 12 11 13 12 10 11 12 13 12 14 14 14 14 14 12 12 12 13
10 9 9 9 10 9 7 7 7 6 6 6 6 6 5 5 6 9 9 8 6 4 7 8 9 7 8 9 9 10 10 9 10 10 11 12 13 14 13 11 17 22 14 8 5 7 9 9 10 10 10 10 11 11 9 11 12 12 12 13 13 13 14 15 15 14 12 11 11 13 12 11 11 12 13 13 13 14 14 14 14 14 14 13 13
10 7 8 9 9 9 8 7 7 7 6 6 6 6 5 4 2 3 4 8 9 10 10 9 10 12 10 9 11 11 9 11 10 11 12 13 14 15 12 10 7 4 2 3 8 8 9 9 9 10 10 10 11 11 10 12 12 12 12 13 13 13 14 13 13 15 14 13 12 13 12 12 14 11 12 12 12 14 15 14 14 14 13 13 13
11 9 9 8 8 8 7 7 7 7 6 6 6 6 5 5 4 4 4 2 3 3 4 8 12 13 18 13 10 11 11 12 12 12 13 13 14 9 6 9 5 6 7 7 7 8 8 8 9 9 10 10 10 10 11 11 11 11 12 12 11 13 13 12 12 13 13 13 12 13 12 10 12 10 11 12 12 12 13 13 13 13 13 12 12
10 9 9 9 8 8 7 7 7 7 6 6 6 6 5 5 5 5 5 4 4 3 3 2 5 9 8 7 10 11 14 13 14 14 13 14 12 7 9 10 7 7 7 7 7 8 8 8 8 9 9 10 10 10 10 10 11 11 11 12 12 13 12 11 12 11 12 12 12 11 12 10 12 11 12 13 12 11 12 14 13 13 13 15 13
10 9 9 10 9 8 8 7 7 6 6 5 6 6 6 6 6 5 4 4 2 2 4 3 2 4 8 11 13 10 10 14 12 8 9 9 6 6 10 7 6 6 6 6 6 7 7 8 8 9 9 9 9 10 10 10 10 11 11 11 11 10 13 10 11 12 10 11 12 12 13 13 12 11 9 11 12 11 10 12 13 13 13 14 12
9 7 11 13 9 8 8 8 8 8 7 7 6 6 5 6 6 6 5 5 6 6 6 5 5 4 4 2 9 10 11 9 6 6 6 4 3 4 5 5 5 5 6 6 6 6 7 7 7 8 8 9 9 9 10 9 10 10 11 9 10 10 11 11 12 12 12 12 12 13 13 14 14 13 11 11 11 11 9 9 10 12 12 11 11
9 7 8 12 9 9 7 8 7 8 8 8 7 6 6 6 6 5 5 5 5 3 5 5 5 4 4 3 1 1 4 6 4 4 3 3 3 5 5 5 5 5 5 6 6 5 6 6 7 7 8 9 8 9 9 9 9 8 8 8 9 10 10 10 11 11 12 12 12 12 13 13 13 13 13 13 11 10 10 9 8 9 10 10 10
9 9 10 9 9 9 8 7 8 8 8 8 7 7 7 7 7 6 6 6 6 6 6 6 5 7 1 9 9 3 4 6 6 6 6 3 4 5 5 4 5 5 5 5 5 5 5 6 6 6 7 8 8 8 8 8 7 7 7 8 8 9 10 9 10 11 11 11 11 12 12 12 12 12 13 11 11 12 10 9 9 8 7 8 10
9 9 10 10 9 9 9 9 7 8 7 7 8 7 7 7 7 7 7 7 6 6 5 6 5 5 9 13 11 9 4 6 7 7 6 5 5 5 4 4 5 4 4 5 5 5 5 5 5 5 4 5 5 5 5 7 6 6 7 7 8 8 9 9 10 10 10 11 10 11 10 11 11 11 10 11 11 11 12 11 10 9 9 7 7
10 8 10 10 10 10 9 9 9 8 8 8 7 7 7 7 7 7 6 8 7 6 6 7 6 6 7 11 13 10 5 6 7 7 7 6 5 4 4 5 4 3 3 4 4 4 3 3 3 4 3 5 6 5 5 4 5 6 6 7 7 8 8 9 9 9 10 10 11 9 8 9 10 10 11 10 10 10 10 8 9 10 10 9 7
9 8 8 9 10 10 10 9 9 9 8 8 8 8 8 8 8 7 7 7 8 9 8 8 7 8 3 7 6 8 6 7 7 7 6 3 4 4 5 5 4 3 4 5 4 4 2 3 3 3 5 6 6 7 5 4 4 4 5 6 7 7 7 8 8 9 9 10 10 10 10 9 9 10 10 8 10 9 9 8 8 8 9 10 9
9 9 8 8 9 9 10 10 9 9 8 8 8 8 8 8 8 8 8 8 8 8 8 8 7 7 8 7 9 9 8 8 8 7 6 7 6 5 4 5 4 5 3 3 3 4 3 3 3 3 3 4 6 6 7 6 5 3 4 4 6 7 7 7 7 8 8 8 9 9 9 9 9 9 10 10 8 8 8 8 9 8 8 8 9
9 9 9 9 9 9 9 9 10 9 9 9 8 9 9 9 9 9 9 8 8 8 8 8 8 8 7 8 8 8 8 7 7 7 6 5 4 4 4 3 4 3 3 3 3 4 3 3 3 4 3 3 3 4 6 6 5 4 5 5 5 5 5 7 6 6 7 7 8 8 8 8 8 8 9 9 8 8 8 6 7 8 7 6 6
9 9 9 9 9 9 9 9 9 10 10 9 9 9 9 9 9 9 10 10 9 8 9 9 8 8 8 9 9 9 8 8 8 5 8 8 7 6 4 4 4 3 3 3 3 3 3 3 3 3 3 3 3 6 6 6 5 4 4 3 5 6 6 5 5 6 6 6 7 7 7 7 8 8 8 9 8 8 7 8 6 5 6 6 5
9 9 9 9 9 9 9 9 9 9 9 9 9 9 9 9 9 9 9 9 10 10 10 9 9 9 9 8 8 8 8 8 8 7 7 6 7 5 6 5 4 3 4 4 4 4 4 4 4 4 3 4 4 4 5 6 5 4 3 2 4 4 4 5 4 7 6 6 6 6 5 6 7 7 7 7 7 8 7 8 7 5 5 6 5
8 9 9 9 9 9 9 9 10 10 10 10 9 9 9 9 9 9 9 9 9 9 9 10 10 10 9 9 8 9 9 8 8 8 8 7 7 8 6 6 6 5 4 5 5 5 4 4 4 4 4 4 4 4 4 6 6 5 3 1 5 4 2 3 4 5 9 6 5 6 5 5 6 6 6 6 7 7 7 7 8 5 5 5 5
10 9 8 9 9 9 9 9 9 10 10 10 10 10 10 10 10 10 10 10 9 9 9 9 9 9 9 9 10 9 9 9 9 8 8 9 9 8 8 8 7 6 5 3 4 5 5 5 4 5 5 5 4 5 4 5 6 5 4 4 6 3 1 4 6 7 5 4 6 5 5 5 5 6 6 6 6 5 6 7 7 6 4 4 5
11 10 10 9 9 9 10 10 10 10 10 10 10 10 10 10 10 10 11 11 11 10 10 10 10 10 10 10 9 9 9 9 9 9 9 10 10 9 9 6 5 5 6 8 5 5 6 6 5 5 5 5 5 5 5 4 5 3 6 9 7 4 4 3 2 6 8 7 4 5 4 5 5 6 5 5 6 6 6 7 6 6 5 4 4
Wind_Direction
113 111 112 110 109 105 101 96 98 97 95 91 87 82 79 79 80 82 80 77 79 71 63 61 55 50 53 47 38 39 34 30 25 21 21 20 20 12 10 9 10 15 6 10 12 6 6 0 7 7 2 354 356 347 350 347 345 338 334 330 326 326 323 318 310 307 305 306 308 306 309 309 303 306 308 309 305 300 291 285 270 240 228 229 236
121 116 109 110 103 100 100 97 92 94 94 92 92 90 88 84 87 83 76 66 69 71 70 63 64 60 51 45 43 36 30 29 19 19 14 12 13 13 9 8 9 12 5 11 9 9 4 1 5 5 4 359 357 353 352 351 345 339 337 333 329 326 325 318 312 307 306 311 307 307 303 306 302 305 304 307 306 301 297 293 281 261 239 230 236
117 114 115 111 110 107 105 100 98 96 94 90 86 88 84 85 84 87 85 82 69 69 67 63 56 57 56 49 43 35 30 23 19 12 13 5 5 11 9 8 8 8 7 13 9 8 5 5 5 4 4 359 3 359 355 349 341 337 334 330 326 323 320 318 313 308 307 305 306 305 307 306 304 306 303 302 303 304 302 298 284 262 254 242 236
118 118 115 109 106 104 100 102 102 99 95 89 88 85 88 88 84 75 75 82 84 69 66 67 66 57 52 51 42 36 26 21 16 10 10 1 1 8 6 10 10 9 11 12 7 8 4 6 7 5 5 1 3 355 350 344 340 336 332 328 323 320 318 315 310 307 307 304 305 305 307 306 304 302 305 303 302 303 302 299 296 289 269 257 233
121 118 114 112 109 106 104 100 97 94 91 91 92 94 87 81 79 83 82 75 71 74 71 69 67 61 55 46 42 34 27 21 13 7 5 1 357 5 8 9 10 13 10 8 10 12 6 9 7 7 3 359 356 354 349 344 341 336 331 327 323 319 316 312 309 306 304 303 304 306 307 303 303 304 306 307 306 304 305 301 302 296 284 273 247
121 119 116 114 110 106 103 101 99 98 96 94 90 88 89 89 86 78 76 78 74 73 70 58 57 62 54 50 42 33 28 20 14 5 0 359 356 1 12 8 10 17 6 9 14 10 11 7 8 11 3 360 356 349 346 341 339 335 329 327 323 320 318 313 309 308 305 303 306 307 308 309 310 307 309 307 310 310 306 302 298 295 290 275 261
125 122 120 116 113 107 104 103 100 97 95 95 97 93 88 86 84 78 72 68 71 73 71 69 63 61 58 51 41 33 27 20 12 6 1 1 355 355 11 6 14 19 5 12 11 13 10 8 10 12 2 359 352 347 343 340 336 331 329 325 324 322 317 315 314 311 308 306 305 304 306 308 309 309 310 309 305 302 304 311 314 318 315 302 281
124 120 118 114 112 111 108 106 102 100 100 98 92 95 94 88 81 75 70 67 66 68 69 74 73 65 59 52 45 34 26 20 15 6 1 358 349 349 12 10 10 12 12 13 13 15 10 8 6 5 359 353 351 343 342 339 334 329 328 325 324 321 317 317 315 311 308 306 304 308 308 308 308 305 307 309 310 308 311 316 311 311 311 302 301
125 123 120 117 113 114 115 109 110 110 107 103 100 94 89 87 87 86 82 74 63 63 68 71 71 69 61 54 45 37 29 19 12 358 356 356 345 341 13 6 6 11 14 10 7 14 8 7 1 1 350 348 336 331 341 345 336 328 327 327 324 320 317 315 314 310 308 307 306 305 306 306 306 307 308 310 310 309 310 305 298 302 304 304 304
126 124 121 120 122 120 117 117 113 112 110 106 103 100 97 93 88 82 76 71 70 70 70 67 70 66 57 51 48 40 29 19 356 349 347 355 342 342 352 12 7 13 10 6 7 9 4 1 356 356 334 352 345 354 353 341 332 326 326 325 323 318 315 314 313 314 312 310 308 308 305 302 302 303 301 301 302 302 302 304 305 310 310 305 299
128 127 125 126 124 122 118 118 117 112 108 107 110 105 98 94 87 81 76 72 72 73 72 74 69 64 60 52 46 43 31 11 351 351 346 346 347 331 339 10 11 9 12 3 4 6 1 360 354 351 353 353 351 5 348 336 330 329 322 311 303 303 312 315 314 314 311 306 306 304 301 301 300 299 298 299 298 299 299 305 306 305 304 305 302
131 128 127 129 127 124 122 121 117 114 114 109 104 104 103 97 92 86 85 80 77 76 71 68 71 70 65 58 49 42 33 10 354 350 350 345 342 333 323 17 2 8 13 357 7 9 1 359 355 352 359 353 358 358 345 337 335 330 317 308 310 309 306 309 310 308 306 305 305 302 301 298 299 301 300 298 298 302 303 301 297 296 294 291 287
132 132 133 129 124 124 122 119 115 113 108 106 105 105 103 101 96 92 85 82 80 72 69 66 64 68 75 65 52 42 30 12 354 355 350 348 338 332 332 22 357 3 10 357 10 6 5 359 357 359 357 357 5 354 346 340 338 330 324 333 332 330 322 311 301 295 298 306 306 303 301 303 301 297 297 296 298 295 297 290 289 288 287 287 284
135 133 130 127 127 125 122 118 113 112 112 111 111 105 102 99 101 101 100 93 85 79 73 67 65 65 68 74 64 48 31 7 0 358 351 349 339 332 348 10 6 5 12 1 7 11 8 0 355 359 0 360 4 352 344 341 339 336 342 341 336 332 330 325 320 321 322 314 308 303 302 302 297 297 295 293 291 289 290 289 290 286 285 282 287
136 135 131 129 128 125 124 121 117 115 113 111 108 106 104 109 106 99 96 90 86 83 79 74 64 59 64 74 74 58 40 15 7 359 355 349 342 317 13 354 7 5 13 358 4 9 12 1 357 2 358 3 358 348 339 339 339 340 344 341 338 337 332 333 333 329 322 314 308 304 304 303 298 295 293 290 287 286 284 283 282 281 282 283 280
136 135 133 133 130 127 123 122 121 120 119 117 113 110 106 103 102 102 101 95 90 89 83 76 70 60 56 60 72 66 54 28 10 4 356 352 339 325 18 359 4 5 10 4 8 356 24 5 5 5 358 357 351 342 335 330 337 344 343 343 341 337 334 332 328 320 310 305 305 305 303 295 290 288 288 282 280 278 277 275 272 270 272 275 274
137 138 137 134 131 131 131 129 126 122 120 118 116 113 114 110 107 107 103 100 98 91 87 81 73 66 53 43 53 70 61 37 21 7 359 354 347 347 14 6 358 358 12 359 356 9 58 17 26 16 3 354 342 334 330 331 338 344 346 346 343 340 338 335 329 319 308 304 302 299 297 297 295 292 291 285 276 277 273 276 271 272 272 272 274
141 141 138 136 134 132 131 130 129 127 123 118 114 115 114 109 103 99 99 101 97 97 98 94 91 81 67 51 24 52 72 54 31 13 0 356 347 345 4 9 358 351 360 0 356 5 84 83 41 27 10 353 334 328 329 333 334 338 349 346 343 344 340 337 329 323 320 317 314 310 309 308 309 306 300 297 298 296 283 285 289 287 274 268 274
144 142 139 137 134 133 133 130 129 126 121 119 120 119 115 114 121 119 114 110 102 97 89 89 91 88 88 81 41 29 59 73 47 18 5 357 353 348 358 9 359 356 344 2 349 2 354 66 70 36 11 340 329 326 326 328 326 321 343 342 337 335 333 328 325 324 330 331 331 328 319 317 317 316 312 306 300 297 289 286 290 286 284 278 271
141 139 138 136 134 130 127 127 127 128 126 125 121 115 114 112 109 105 105 101 99 100 100 89 80 76 74 91 81 52 38 58 64 29 8 355 354 343 357 3 355 347 339 341 360 346 352 350 1 32 359 336 324 320 320 320 317 308 336 343 332 318 315 311 310 317 322 331 324 319 316 314 315 311 313 314 311 307 301 294 292 287 277 277 274
141 140 138 135 134 132 130 129 128 127 126 126 126 123 118 117 115 109 97 87 95 99 109 116 106 101 84 61 71 74 42 25 93 48 11 350 343 350 356 4 352 341 330 332 349 344 345 353 340 8 344 324 317 314 313 314 309 297 333 337 318 298 307 313 328 336 329 324 322 326 323 321 321 318 316 318 313 313 307 296 289 281 279 279 272
142 140 141 140 136 134 131 129 131 127 127 130 131 123 127 133 136 129 110 111 109 97 83 85 83 80 101 100 58 75 118 32 27 87 30 339 331 331 341 354 348 333 327 326 340 349 342 342 342 351 331 315 309 307 307 312 305 294 332 308 294 301 317 334 340 342 340 330 330 331 329 328 327 328 322 322 324 319 314 306 297 288 277 268 268
144 144 141 136 136 135 133 137 136 136 137 136 132 130 131 127 128 132 144 137 131 133 112 92 86 70 71 55 63 50 108 135 47 31 31 336 335 322 304 297 317 314 335 322 339 342 336 339 342 336 312 307 303 298 303 307 303 334 317 301 299 295 322 347 345 344 344 339 333 335 331 332 331 329 330 334 329 324 319 316 308 301 286 276 264
147 142 138 138 139 138 143 146 144 143 146 147 143 141 141 150 153 128 153 151 124 113 94 93 68 66 43 51 50 53 36 68 121 61 8 357 334 327 313 300 283 320 318 320 346 332 336 333 319 309 300 299 301 290 304 316 326 322 314 305 310 319 344 346 350 344 336 336 338 335 333 329 330 331 334 333 327 323 322 319 313 302 297 290 285
145 143 144 143 144 146 151 149 153 154 153 155 147 145 162 178 145 157 138 103 92 89 95 83 58 49 44 28 41 39 39 38 14 48 18 359 344 349 335 330 296 296 309 338 339 329 307 301 296 287 283 304 314 328 340 333 331 337 333 329 327 350 346 346 347 348 340 338 337 333 331 331 327 327 330 331 327 323 330 331 327 323 317 308 304
146 149 148 147 153 153 155 157 158 156 169 164 166 156 166 176 150 139 135 115 105 97 61 52 50 50 28 31 21 31 43 32 19 11 5 3 356 353 342 359 356 330 304 335 317 299 308 303 300 314 327 333 336 350 336 329 329 352 342 341 344 348 352 347 347 344 345 337 337 335 331 328 329 331 331 333 340 340 338 337 336 343 340 337 347
150 152 146 154 161 160 157 164 158 162 182 168 161 157 162 138 147 183 154 137 122 95 81 40 42 24 45 25 9 19 31 37 22 9 6 356 356 350 354 354 350 337 346 352 335 333 315 292 335 313 316 323 335 332 345 338 349 352 354 349 346 349 350 352 349 342 340 339 335 335 331 328 323 334 344 347 345 343 341 340 342 347 344 342 346
157 153 154 158 166 161 168 140 161 167 181 177 160 160 152 169 141 84 48 26 4 88 87 60 22 24 2 32 7 11 16 31 26 7 356 350 344 344 348 349 351 349 341 342 330 322 308 335 343 348 348 351 352 350 347 357 356 353 353 351 346 346 344 344 345 343 341 338 335 331 334 336 339 340 343 347 349 346 346 345 349 347 351 349 0
159 156 159 163 168 168 167 168 193 166 169 178 173 135 114 167 135 115 60 36 26 11 8 47 41 6 350 34 17 7 9 20 22 14 326 322 310 323 335 332 333 323 316 315 317 312 305 342 345 348 354 359 348 355 354 349 354 355 355 352 345 351 350 345 348 349 345 339 341 341 337 338 336 342 345 349 354 353 353 347 352 353 353 3 12
167 163 168 169 170 178 170 176 201 171 167 176 160 104 66 69 34 55 107 80 67 52 30 41 15 353 340 38 50 2 359 9 48 316 305 304 306 299 288 291 292 295 295 304 308 301 319 349 340 352 349 359 351 351 352 353 349 356 1 350 347 353 348 348 348 345 346 340 338 340 341 339 342 347 351 351 350 356 356 356 356 357 5 9 10
172 170 177 178 170 186 172 175 189 182 171 173 163 147 151 110 91 90 99 130 142 159 104 125 2 330 333 339 96 157 130 165 229 265 293 295 296 295 293 293 295 296 301 316 320 303 323 347 342 348 349 355 349 356 353 350 351 350 354 350 356 355 350 350 348 343 345 342 341 342 340 342 347 347 350 353 352 355 359 0 2 6 14 15 18
179 176 178 174 155 188 182 176 179 187 176 179 174 168 165 160 157 143 150 156 172 177 188 193 198 204 222 243 286 210 176 211 229 280 286 294 292 291 291 290 290 294 293 311 293 306 347 349 345 346 347 355 349 353 353 351 347 355 354 350 351 354 352 353 342 347 347 342 343 344 343 345 352 351 353 356 356 1 4 3 5 6 10 18 22
185 175 179 173 164 198 199 173 181 182 186 181 189 191 189 178 176 171 202 217 194 195 201 207 204 210 209 214 219 249 277 296 297 288 284 285 290 288 289 290 286 284 290 294 301 342 340 349 345 345 350 352 353 351 350 346 351 348 352 350 350 354 354 350 343 349 343 336 345 346 339 342 353 354 357 1 5 7 9 10 5 7 10 18 23
187 186 182 178 173 185 200 173 183 184 189 182 199 187 211 209 187 172 178 186 193 218 225 221 225 218 233 229 221 228 234 252 263 275 279 277 280 283 285 292 289 282 269 258 295 339 340 354 347 349 351 351 350 348 347 349 349 349 353 350 347 354 355 350 351 347 344 341 353 347 340 348 354 360 360 4 10 9 14 14 11 11 13 17 21
189 175 159 180 177 181 196 175 183 186 184 187 190 197 201 195 213 216 214 187 191 200 200 205 208 210 218 221 231 229 237 238 243 253 264 271 274 279 303 294 289 308 295 322 354 345 344 347 347 349 350 351 351 348 349 349 350 351 355 350 350 353 354 353 354 349 346 348 355 349 343 358 356 3 3 6 11 16 16 16 17 14 12 16 20
191 179 171 179 186 182 193 180 183 190 185 190 191 197 191 181 209 205 215 251 276 262 253 184 187 203 213 227 212 211 222 234 240 243 248 258 265 286 302 289 324 337 350 343 358 345 338 347 346 350 349 352 351 349 351 349 352 350 355 350 352 354 353 352 355 352 346 348 354 349 339 5 357 2 8 9 16 25 23 22 22 20 19 20 25
193 173 175 183 195 179 194 186 184 190 183 192 192 193 195 199 203 217 213 217 222 257 276 273 192 173 196 221 223 222 222 230 234 235 240 247 262 274 272 282 321 331 346 343 353 342 342 350 349 349 349 352 352 349 349 349 353 351 353 352 351 353 351 348 356 351 350 350 355 354 346 3 5 4 13 12 12 27 31 26 24 25 24 22 20
195 177 176 182 195 187 189 191 172 131 171 200 201 205 198 204 203 219 241 253 282 251 275 261 269 245 201 202 197 203 221 230 242 268 267 265 262 253 256 275 317 326 341 334 348 339 343 345 350 348 349 352 352 349 349 350 354 351 351 352 349 353 341 342 357 354 350 351 358 358 359 359 12 4 14 16 12 16 35 33 27 23 24 24 25
202 148 156 162 195 195 191 194 174 178 192 201 215 218 211 212 206 218 223 223 211 228 226 251 261 248 284 134 172 201 217 227 216 226 232 233 250 276 298 312 313 329 331 328 334 339 344 345 349 347 350 351 349 352 351 350 353 350 349 351 348 352 349 353 354 356 355 354 357 359 1 357 11 9 13 20 13 16 25 43 39 31 25 24 23
195 156 148 155 187 211 209 197 189 187 195 203 212 216 208 219 237 234 235 237 249 245 244 246 243 262 253 249 310 310 303 315 306 289 285 279 279 286 293 309 320 316 326 325 328 336 340 343 347 346 351 349 345 352 349 349 356 346 349 351 349 351 349 352 353 355 354 353 356 358 1 358 6 13 9 27 17 18 20 30 40 44 35 32 28
198 178 147 168 198 195 216 213 203 202 194 203 218 213 223 219 222 229 232 233 231 232 240 247 256 257 220 97 102 97 281 286 289 286 277 278 282 276 282 308 313 307 312 324 324 332 334 339 343 341 348 344 342 348 346 349 352 347 349 349 349 350 347 351 353 353 350 353 356 357 1 360 359 11 11 11 24 22 26 26 32 35 43 43 36
196 182 162 177 193 212 202 213 214 207 220 208 208 220 223 222 225 224 232 242 249 259 255 261 255 264 134 144 139 167 217 271 272 283 285 278 274 275 282 284 288 303 315 317 327 322 334 333 337 331 346 337 340 346 340 345 350 346 350 350 351 350 347 350 351 348 349 353 354 356 357 0 358 3 9 2 19 21 28 29 29 34 35 42 49
194 190 172 179 188 200 211 204 216 214 212 218 223 221 236 245 229 222 226 234 250 248 248 250 255 249 170 162 158 173 216 247 250 255 261 263 261 275 280 276 277 286 315 312 306 322 327 331 333 325 336 334 337 344 332 344 348 349 351 352 353 351 349 350 348 349 350 352 349 350 348 5 1 10 2 12 10 21 18 26 31 31 37 36 40
190 201 188 181 187 192 205 215 210 217 219 216 222 226 224 223 236 247 245 230 220 223 237 247 252 260 228 151 163 184 244 254 251 248 249 277 293 284 270 269 267 290 300 297 303 311 319 317 326 320 329 324 332 337 327 341 344 354 351 357 358 353 354 351 348 345 348 349 343 350 355 0 1 9 1 5 12 12 20 9 31 35 32 39 35
198 197 203 191 190 194 196 210 221 214 215 221 221 225 224 237 239 234 234 236 237 235 240 236 239 237 240 207 192 215 234 235 233 239 248 252 252 260 267 265 259 256 261 288 285 276 297 309 302 302 312 316 324 325 322 332 338 360 354 13 7 360 358 352 348 338 343 346 343 350 356 357 1 7 6 358 12 9 18 21 12 26 44 37 39
204 202 202 205 200 200 204 201 207 220 216 218 223 225 223 224 227 237 238 239 241 246 241 236 234 238 240 244 245 245 248 254 261 258 254 251 252 256 263 271 272 274 275 270 279 287 276 282 294 292 299 305 308 312 313 316 322 357 350 26 21 11 3 354 342 334 346 348 339 346 354 354 358 2 10 357 7 7 4 13 21 9 22 53 48
203 209 202 207 212 208 210 215 210 210 217 222 223 226 232 231 229 225 224 231 241 239 238 246 250 243 232 232 235 242 248 250 252 255 256 252 252 251 258 273 288 283 275 274 268 270 267 254 252 260 270 290 301 300 299 302 315 329 346 22 38 13 10 349 336 338 349 342 333 339 352 352 357 353 3 359 2 3 358 2 20 22 12 20 54
202 205 211 211 213 218 214 213 220 218 228 223 225 230 232 236 237 235 239 227 220 229 241 246 246 246 247 244 239 239 239 241 243 249 255 259 260 260 257 251 240 249 263 261 262 262 262 268 264 266 270 265 264 272 285 290 300 313 324 38 47 29 3 335 335 342 349 331 324 338 348 358 355 352 356 352 358 357 359 358 358 28 20 14 13
219 210 209 214 220 219 223 221 219 221 221 228 232 232 234 235 237 241 238 237 240 238 232 230 236 243 247 247 247 246 244 241 242 241 244 248 251 254 255 257 247 227 233 271 286 279 271 267 264 258 257 258 261 262 266 275 280 281 285 66 96 96 325 328 317 337 319 315 332 333 353 357 355 345 353 352 351 0 355 352 345 1 30 14 12
225 223 224 219 218 224 227 228 229 225 224 226 227 230 229 231 235 238 241 244 242 240 241 240 239 238 239 240 239 240 242 244 243 243 240 246 253 256 250 244 237 261 280 269 254 256 256 254 246 239 236 240 251 261 269 269 267 267 259 112 123 139 288 303 291 297 313 334 319 324 354 353 356 347 351 356 346 355 353 351 345 344 18 28 11
218 222 227 229 230 224 224 229 230 232 231 229 227 230 231 234 233 232 234 236 242 245 245 243 242 239 241 244 248 248 247 245 244 246 251 255 255 252 247 258 277 273 240 236 243 253 258 257 256 250 247 237 237 239 249 253 258 252 118 131 155 164 204 260 287 319 320 310 311 315 350 346 354 349 348 0 349 351 338 336 341 342 355 18 18